Погода в Порламаре

Венесуэла     10°57′31″N   63°51′16″W
темп.,
°C
ветер,
м/с
пор.,
м/с
влажн.,
%
обл.,
%
осадки,
мм/ч
давл.,
гПа
погр.,
м
8 марта, пн
пн823:00+25в8138916 0.1 1014494
02:00+25в8128928 0.4 1013538
05:00+25всв7108915 0.2 1013517
08:00+25в6108837 0.9 1015376
11:00+25в6108843 0.6 1016470
14:00+25всв7128525 0.6 1013583
17:00+25всв813860 0.0 1013561
20:00+25всв913861 0.0 1014570
9 марта, вт
вт923:00+25всв812871 0.0 1015634
02:00+25в8128743 0.1 1014627
05:00+25всв8118681 0.2 1014619
08:00+25всв6108476 0.3 1015565
11:00+25всв588558 0.1 1016473
14:00+25всв7108558 0.3 1013649
17:00+25всв7108460 0.0 1011550
20:00+25всв6118580 0.0 1013637
10 марта, ср
ср1023:00+25всв7108567 0.1 1015611
02:00+24всв698683 0.1 1013587
05:00+24в7108428 0.8 1013605
08:00+24в578545 0.8 1014546
11:00+25в588462 0.0 1015717
14:00+25всв7108365 0.0 1012543
17:00+25всв8128590 0.0 1010562
20:00+25всв7118780 0.0 1013558
11 марта, чт
чт1123:00+24всв61088100 0.4 1014560
02:00+24в6987100 2.0 1013428
05:00+24в5787100 0.1 1012350
08:00+25в478792 0.1 1014296
11:00+25всв5886100 0.0 1015372
14:00+25всв7108594 0.0 1011469
17:00+25всв7108560 0.0 1011468
20:00+25всв6118730 0.3 1012388
12 марта, пт
пт1223:00+25в811850 0.9 1013330
02:00+25вюв45876 0.9 1012147
05:00+24вюв57870 0.0 1012210
08:00+24в57870 0.0 1014211
11:00+25в678420 0.0 1015246
14:00+25всв7118460 0.0 1012354
17:00+25всв8128547 0.2 1011392
20:00+25в8138651 0.2 1013438